Content
SEND FEEDBACK

Daily
Averages
Monthly
Summary
Italy

TURIN, ITALY


Home > Europe > Italy
Elevation: 941 feet     Latitude: 45 13N     Longitude: 007 39E

WEATHER
 
SELECT A DAY
Number of Records: 312,548;   Date Range: 7/1/96 - 12/17/14
 
SHARE

PRINT THIS DATA

[ ← Previous Day ]
WEATHER ALMANAC - MAY 22, 2013
[ Next Day → ]
[ °C ]   °F
Weather ElementAverageHighLow
Temperature57.1 °F62.6 °F (12:20 pm)50 °F (3:50 am)
Dewpoint48 °F51.8 °F (9:50 pm)44.6 °F (2:50 am)
Humidity72.3 %94 % (3:50 am)55 % (12:20 pm)
Barometer29.75 in29.86 in (12:50 am)29.65 in (7:50 pm)
Wind Speed3.9 mph9.2 mph (7:50 pm)
Weather ElementAverage
Visibility6.2 mi
Wind DirectionESE (110 °)

Weather ElementTotal
Precipitation---
Heating Degree Days8.7 (Base 65)
Growing Degree Days6.3 (Base 50)
Averaged from 46 records on May 22, 2013
WEATHER CONDITIONS BREAKOUT
WIND DIRECTION BREAKOUT
WEATHER BY HOUR - MAY 22, 2013
[ °C ]   °F
Local TimeTemperatureDewpointHumidityBarometerVisibilityWind DirectionWind SpeedGust SpeedPrecipitationEventsConditions
12:50 AM53.6 °F46.4 °F77 %29.86 in6.2 miNNE (20°)3.5 mphScattered Clouds
1:20 AM53.6 °F46.4 °F77 %29.86 in6.2 miNorth (350°)3.5 mphMostly Cloudy
1:50 AM53.6 °F46.4 °F77 %29.86 in6.2 miNorth (350°)3.5 mphMostly Cloudy
2:20 AM53.6 °F46.4 °F77 %29.83 in6.2 miVariable1.2 mphMostly Cloudy
2:50 AM53.6 °F44.6 °F72 %29.83 in6.2 miCalmMostly Cloudy
3:20 AM51.8 °F44.6 °F76 %29.83 in6.2 miVariable1.2 mphScattered Clouds
3:50 AM50.0 °F48.2 °F94 %29.83 inVariable1.2 mphClear
4:20 AM51.8 °F48.2 °F88 %29.80 in6.2 miVariable1.2 mphScattered Clouds
4:50 AM51.8 °F48.2 °F88 %29.80 in6.2 miVariable1.2 mphScattered Clouds
5:20 AM51.8 °F48.2 °F88 %29.80 in6.2 miVariable2.3 mphScattered Clouds
5:50 AM50.0 °F48.2 °F94 %29.80 in6.2 miVariable2.3 mphScattered Clouds
6:20 AM50.0 °F48.2 °F94 %29.80 in6.2 miVariable2.3 mphScattered Clouds
6:50 AM51.8 °F46.4 °F82 %29.77 in6.2 miVariable1.2 mphMostly Cloudy
7:20 AM51.8 °F44.6 °F76 %29.77 in6.2 miVariable2.3 mphMostly Cloudy
8:20 AM53.6 °F48.2 °F82 %29.77 in6.2 miVariable2.3 mphScattered Clouds
8:50 AM55.4 °F46.4 °F72 %29.77 in6.2 miVariable2.3 mphScattered Clouds
9:20 AM55.4 °F48.2 °F77 %29.77 in6.2 miVariable2.3 mphScattered Clouds
9:50 AM57.2 °F46.4 °F67 %29.77 in6.2 miESE (110°)5.8 mphScattered Clouds
10:20 AM59.0 °F48.2 °F67 %29.77 in6.2 miVariable1.2 mphScattered Clouds
10:50 AM59.0 °F48.2 °F67 %29.77 in6.2 miENE (60°)3.5 mphScattered Clouds
11:20 AM59.0 °F48.2 °F67 %29.77 in6.2 miEast (100°)3.5 mphMostly Cloudy
11:50 AM60.8 °F50.0 °F68 %29.74 in6.2 miVariable2.3 mphMostly Cloudy
12:20 PM62.6 °F46.4 °F55 %29.74 in6.2 miSouth (170°)4.6 mphMostly Cloudy
12:50 PM62.6 °F46.4 °F55 %29.77 in6.2 miSE (130°)4.6 mphScattered Clouds
1:20 PM60.8 °F46.4 °F59 %29.74 in6.2 miSE (140°)5.8 mphScattered Clouds
1:50 PM60.8 °F48.2 °F63 %29.74 in6.2 miENE (70°)4.6 mphScattered Clouds
2:20 PM60.8 °F48.2 °F63 %29.74 in6.2 miESE (120°)4.6 mphScattered Clouds
2:50 PM60.8 °F48.2 °F63 %29.74 in6.2 miESE (120°)5.8 mphScattered Clouds
3:20 PM60.8 °F48.2 °F63 %29.71 in6.2 miSE (140°)3.5 mphMostly Cloudy
3:50 PM60.8 °F46.4 °F59 %29.71 in6.2 miEast (100°)3.5 mphRainLight Rain
4:20 PM62.6 °F48.2 °F59 %29.71 in6.2 miENE (70°)4.6 mphMostly Cloudy
4:50 PM62.6 °F46.4 °F55 %29.71 in6.2 miNorth (360°)4.6 mphMostly Cloudy
5:20 PM62.6 °F48.2 °F59 %29.71 in6.2 miNNE (20°)3.5 mphRainLight Rain
5:50 PM60.8 °F50.0 °F68 %29.71 in6.2 miNNW (330°)6.9 mphRainLight Rain
6:20 PM60.8 °F50.0 °F68 %29.68 in6.2 miWest (270°)6.9 mphMostly Cloudy
6:50 PM60.8 °F50.0 °F68 %29.68 in6.2 miWSW (240°)8.1 mphMostly Cloudy
7:20 PM60.8 °F50.0 °F68 %29.68 in6.2 miWSW (240°)8.1 mphMostly Cloudy
7:50 PM60.8 °F50.0 °F68 %29.65 in6.2 miWSW (240°)9.2 mphMostly Cloudy
8:20 PM59.0 °F50.0 °F72 %29.65 in6.2 miWSW (250°)5.8 mphMostly Cloudy
8:50 PM59.0 °F50.0 °F72 %29.65 in6.2 miSSW (200°)6.9 mphMostly Cloudy
9:20 PM59.0 °F50.0 °F72 %29.65 in6.2 miWest (260°)4.6 mphMostly Cloudy
9:50 PM57.2 °F51.8 °F82 %29.65 in6.2 miWest (280°)6.9 mphScattered Clouds
10:20 PM59.0 °F50.0 °F72 %29.68 in6.2 miNW (310°)6.9 mphScattered Clouds
10:50 PM57.2 °F48.2 °F72 %29.68 in6.2 miNorth (10°)4.6 mphScattered Clouds
11:20 PM53.6 °F48.2 °F82 %29.68 in6.2 miVariable2.3 mphScattered Clouds
11:50 PM53.6 °F48.2 °F82 %29.68 inVariable2.3 mphClear
Hourly data recorded from LIMF, located miles away from Turin, Italy







STORIES FROM OUR PARTNERS